www.pogodaiklimat.ru

Погода и климат >> Архив погоды >> Россия >> Новосибирская область >> Новосибирск


АРХИВ ПОГОДЫ в Новосибирске

Время (UTC), дата Ветер
(напр.,м/с)
 
Видим.   Явления Облачность Т
(С)
Тd
(С)
f
(%)
Тe
(С)
Тes
(С)
Комфортность P
(гПа)
Po
(гПа)
Тmin
(С)
Tmax
(С)
R
(мм)
R24
(мм)
S
(см)
15 10.07 СВ 1 24 км 4/0
[Ci fib]
+21.4 +11.1 52 +23 +23 комфорт 1009.3 994.0
18 10.07 С 1 20 км ясно +18.2 +11.1 63 +20 +20 1009.0 993.5
21 10.07 С 1 20 км 3/0
[Ci fib]
+15.6 +10.2 70 +16 +16 1008.3 992.7
00 11.07 СВ 2 25 км ясно +16.6 +10.6 68 +17 +18 1008.0 992.5 +14.4
03 11.07 СВ 2 14 км ясно +22.4 +12.0 52 +25 +34 комфорт 1007.8 992.6
06 11.07 СВ 3 10 км ясно +26.0 +11.5 40 +27 +40 жарко 1007.0 992.0
09 11.07 СВ 3
{10}
10 км ясно +27.5 +10.6 35 +28 +38 жарко 1006.4 991.4
12 11.07 СВ 3 10 км ясно +26.8 +12.2 40 +28 +31 жарко 1005.7 990.8 +27.5
15 11.07 С 2 24 км ясно +23.2 +14.0 56 +27 +27 душно 1005.9 990.8
18 11.07 СВ 2 20 км ясно +20.2 +13.2 64 +23 +23 комфорт 1005.7 990.4
21 11.07 СВ 1 20 км ясно +18.6 +13.1 70 +20 +20 1004.8 989.5
00 12.07 СВ 1 24 км ясно +18.8 +13.4 71 +21 +22 комфорт 1004.6 989.3 +17.1
03 12.07 С 2 10 км ясно +23.4 +14.6 58 +27 +36 душно 1003.7 988.6
06 12.07 СВ 3 10 км ясно +27.9 +15.1 46 +31 +44 душно 1002.5 987.7
09 12.07 СВ 3 10 км 6/6 1000 м
[Cu hum]
+28.7 +14.7 42 +31 +35 жарко 1002.0 987.2
12 12.07 В 1 12 км 8/8 1000 м
[Cu hum]
+28.1 +14.7 44 +31 +31 душно 1001.6 986.8 +28.9
15 12.07 С 2 12 км 8/4 600 м
[Cu med, cong Ci fib]
+25.1 +14.6 52 +28 +28 жарко 1001.9 986.9
18 12.07 СВ 1 10 км 6/0
[Ci sp]
+22.0 +14.7 63 +25 +25 комфорт 1001.6 986.5
21 12.07 С 1 10 км 10/0
[Ci fib]
+19.9 +15.9 78 +23 +23 комфорт 1000.7 985.5
00 13.07 штиль 0 11 км 10/0
[Ci fib]
+20.1 +16.9 82 +23 +24 комфорт 1001.2 986.0 +17.3
03 13.07 С 2 10 км дым 10/0
[Ci fib]
+23.9 +16.8 64 +27 +35 жарко 1000.1 985.1
06 13.07 С 2 10 км дым 10/3 1000 м
[Sc Ci fib]
+28.1 +17.5 53 +32 +41 душно 1000.0 985.2
09 13.07 В 1 12 км 10/6 1000 м
[Cu med, cong Ac trans Ci fib]
+29.8 +17.6 48 +34 +37 очень
душно
999.5 984.9
12 13.07 ЮВ 2 8000 м гроза, ливневой дождь 10/10 600 м
[Cb cap]
+23.8 +19.0 75 +29 +29 душно 1000.3 985.4 +30.0 0.3
15 13.07 Ю 2 10 км {гроза, ливн. осадки} 8/6 600 м
[Cb cap Ci fib]
+20.5 +18.3 87 +25 +25 комфорт 1001.3 986.1
18 13.07 С 1 20 км зарница {гроза, ливн. осадки} 6/6 600 м
[Cb cap]
+17.9 +16.1 89 +19 +19 1001.7 986.4
21 13.07 ЮЗ 1 20 км гроза без осадков 8/4 600 м
[Cb cap Ci fib]
+15.9 +14.7 93 +17 +17 1001.5 986.1
00 14.07 С 4 14 км {гроза} 10/10 600 м
[Cb cap]
+19.2 +16.5 84 +21 +21 комфорт 1001.9 986.7 +15.8 0.0
03 14.07 СВ 2 10 км 9/8 600 м
[Cb cap Ci fib]
+22.3 +18.2 78 +27 +29 душно 1002.9 987.8
06 14.07 СВ 3 30 км 9/6 600 м
[Sc Ci fib]
+24.0 +17.1 65 +28 +32 душно 1003.4 988.4
09 14.07 СВ 3 12 км 10/10 600 м
[Cb calv]
+23.0 +16.8 68 +28 +28 душно 1003.9 988.8
12 14.07 С 3 10 км 10/10 600 м
[Cb cap]
+23.2 +15.4 62 +27 +27 душно 1004.5 989.4 +24.7
15 14.07 С 3 18 км 10/8 600 м
[Cb cap Ci fib]
+21.8 +14.0 61 +25 +25 комфорт 1005.4 990.2
18 14.07 С 2 20 км 8/6 600 м
[Cb cap Ci fib]
+19.4 +12.1 63 +21 +21 комфорт 1005.5 990.2
21 14.07 С 2 20 км 8/8 600 м
[Cb cap]
+17.9 +11.0 64 +18 +18 1005.3 989.9
00 15.07 С 3 21 км 10/8 600 м
[Cb cap Ci fib]
+17.4 +11.3 67 +17 +18 1006.0 990.6 +16.8
03 15.07 СВ 3 27 км 10/4 1000 м
[Sc Ci fib]
+20.9 +12.3 58 +24 +27 комфорт 1006.6 991.3
06 15.07 С 4
{10}
23 км 10/3 1000 м
[Cu med, cong Ci fib]
+24.4 +12.1 46 +26 +32 жарко 1006.5 991.4
09 15.07 С 3 25 км 10/5 600 м
[Sc Ac trans Ci fib]
+25.0 +13.5 49 +27 +30 жарко 1006.0 991.0
12 15.07 С 5 25 км 10/3 1000 м
[Sc Ac trans Ci fib]
+26.0 +14.0 48 +28 +29 жарко 1006.1 991.1 +26.9
15 15.07 С 3
{10}
10 км 9/8 600 м
[Cb cap Ci fib]
+23.2 +13.7 55 +27 +27 душно 1007.5 992.3
18 15.07 СВ 3 20 км ясно +20.7 +12.7 60 +23 +23 комфорт 1007.6 992.3
21 15.07 СВ 3 20 км ясно +18.7 +12.4 67 +20 +20 1007.4 992.0
00 16.07 С 4 14 км 3/3 600 м
[Sc]
+17.7 +11.6 67 +17 +18 1007.7 992.3 +17.2
03 16.07 СВ 3 24 км ясно +22.2 +11.3 50 +24 +32 комфорт 1008.0 992.8
06 16.07 СВ 5-10
{11}
26 км ясно +25.3 +8.0 33 +25 +33 комфорт 1007.7 992.6
09 16.07 СВ 4
{12}
27 км 3/3 1000 м
[Cu hum]
+26.3 +8.2 32 +26 +32 жарко 1007.2 992.2
12 16.07 С 4
{11}
29 км 3/3 1000 м
[Cu hum]
+25.3 +8.4 34 +26 +27 жарко 1007.3 992.3 +26.4
15 16.07 С 4
{11}
22 км 3/3 1000 м
[Sc]
+21.6 +9.0 44 +23 +23 комфорт 1008.8 993.5
18 16.07 С 2 20 км ясно +18.9 +8.2 50 +20 +20 1008.7 993.3
21 16.07 С 1 20 км ясно +15.6 +8.5 63 +16 +16 1008.8 993.2
00 17.07 С 2 25 км 3/0
[Ci fib]
+15.9 +9.9 68 +16 +17 1009.3 993.8 +14.0
03 17.07 С 3 21 км 3/0
[Ci fib]
+21.7 +9.6 46 +23 +30 комфорт 1009.3 994.0
06 17.07 СВ 5-11
{11}
25 км 10/0
[Ci fib]
+23.8 +6.1 32 +24 +30 комфорт 1008.7 993.5
09 17.07 СВ 4-10
{12}
24 км 10/3 1000 м
[Cu hum Ci fib]
+25.5 +7.6 32 +26 +30 жарко 1008.1 993.0
12 17.07 С 5
{11}
22 км 10/3 1000 м
[Cu hum Ci fib]
+25.2 +8.2 34 +26 +26 жарко 1008.1 993.0 +26.1

 

Местоположение метеостанции Новосибирск (Новосибирская область, Россия): широта 54.90 долгота 82.95 высота над уровнем моря 131 м.

В архиве по умолчанию представлена погода в Новосибирске за последнюю неделю. Архивные данные за месяц целиком и за предыдущие месяцы, начиная с января 2011 года, Вы можете получить, выбрав интересующий диапазон дат из раскрывающегося списка и нажав кнопку "Ввод!".


*Определитесь, кто Вы:
робот инопланетянин человек

Внимание! Время в таблицах - всемирное. Для получения местного времени необходимо прибавить поправку, которая в Новосибирске равна 7 ч.

Смотрите также архив погоды в соседних городах и на ближайших метеорологических станциях:

Погода в Обской ГМО (Новосибирская область, Россия) (6 км)
Погода в Учебной (Новосибирская область, Россия) (8 км)
Погода в Новосибирск планетарии (Новосибирская область, Россия) (10 км)
Погода в Новом (Новосибирская область, Россия) (17 км)
Погода в Искитиме (Новосибирская область, Россия) (37 км)
Погода в Коченево (Новосибирская область, Россия) (48 км)
Погода в Колывани (Новосибирская область, Россия) (49 км)
Погода в Мошково (Новосибирская область, Россия) (62 км)
Погода в Дальнем (Новосибирская область, Россия) (65 км)
Погода в Посевной (Новосибирская область, Россия) (71 км)

Пояснения к столбцам:

Ветер - указаны скорость ветра в м/с - средняя за 10 мин, порывы в срок и между сроками (в фигурных скобках) и направление, откуда дует ветер: С - северный, СВ - северо-восточный, В - восточный, ЮВ - юго-восточный, Ю - южный, ЮЗ - юго-западный, З - западный, СЗ - северо-западный.
Видимость - горизонтальная дальность видимости в метрах или километрах. При видимости от 1 до 10 км при отсутствии осадков обычно наблюдается дымка, при ухудшении видимости до 1 км и менее - туман. В сухую погоду видимость может ухудшаться дымом, пылью или мглою.
Явления - указаны атмосферные явления, наблюдавшиеся в срок или в последний час перед сроком; фигурными скобками обозначены явления, наблюдавшиеся между сроками (за 1-3 часа до срока); квадратными скобками обозначены град или гололедные отложения с указанием их диаметра в мм.
Облачность - указаны через наклонную черту общая и нижняя облачность в баллах и высота нижней границы облаков в метрах; квадратными скобками обозначены формы облаков: Ci - перистые, Cs - перисто-слоистые, Cc - перисто-кучевые, Ac - высококучевые, As - высокослоистые, Sc - слоисто-кучевые, Ns - слоисто-дождевые, Cu - кучевые, Cb - кучево-дождевые. Подробнее классификацию облаков см. в Атласе облаков (PDF).
T - Температура воздуха - температура, измеренная на высоте 2 м над землей.
Td - Температура точки росы - температура, при понижении до которой содержащийся в воздухе водяной пар достигнет насыщения.
f - Относительная влажность воздуха - влажноcть воздуха, измеренная на высоте 2 м над землей.
Te - Эффективная температура - температура, которую ощущает одетый по сезону человек в тени. Характеристика душности погоды. При расчете учитывается влияние влажности воздуха и скорости ветра на теплоощущения человека.
Tes - Эффективная температура на солнце - температура, которую ощущает человек, с поправкой на солнечный нагрев. Характеристика знойности погоды. Зависит от высоты солнца над горизонтом, облачности и скорости ветра. Ночью, в пасмурную погоду, а также при ветре 12 м/с и более поправка равна нулю.
P - Атмосферное давление - приведенное к уровню моря атмосферное давление.
Po - Атмосферное давление - измеренное на уровне метеостанции атмосферное давление.
Tmin - Минимальная температура - минимум температуры воздуха на высоте 2 м над землей.
Tmax - Максимальная температура - максимум температуры воздуха на высоте 2 м над землей.
R - Количество осадков - Количество выпавших осадков за период времени, мм. При наведении курсора мыши на число - период времени, за который выпало указанное количество осадков.
R24 - Количество осадков - Количество выпавших осадков за 24 часа, мм.
S - Снежный покров - Высота снежного покрова, см. При наведении курсора мыши на число - состояние снежного покрова и степень покрытия местности в баллах.